Location: Fenile
(46.0500°N, 9.5500°E)
Time: 17:06:34
(UTC+00:00)

FALCON 9 DEB - Pass Details

Date: 03 March 2021
Orbit: 424 x 435 km, 53.0° (Epoch: 11 April)

Event Time Altitude Azimuth Distance (km) Brightness Sun altitude
Rises 18:20:42 0° 301° (WNW) 2,404 8.1 -12.9°
Reaches altitude 10° 18:22:51 10° 305° (NW) 1,532 6.9 -13.2°
Maximum altitude 18:26:15 62° 27° (NNE) 489 3.2 -13.8°
Enters shadow 18:27:50 28° 99° (E) 833 3.9 -14.1°
